This is the latest recevied weather packets stored in our database for station/object DG6HD-13. If no packets are shown the sender has not sent any weather packets the latest 10 day(s).
| Time | Temp. | Humidity | Pressure | Rain* | Wind** | Luminosity | Snow |
|---|---|---|---|---|---|---|---|
| 1777818349 | 26.11° C | 37% | 1009.7 hPa | - | - | - | - |
| 1777817448 | 26.11° C | 38% | 1009.8 hPa | - | - | - | - |
| 1777816547 | 26.11° C | 37% | 1009.9 hPa | - | - | - | - |
| 1777815646 | 26.11° C | 37% | 1010.1 hPa | - | - | - | - |
| 1777814745 | 26.11° C | 36% | 1010.1 hPa | - | - | - | - |
| 1777813845 | 26.11° C | 36% | 1010.3 hPa | - | - | - | - |
| 1777812944 | 26.11° C | 37% | 1010.6 hPa | - | - | - | - |
| 1777812043 | 26.11° C | 34% | 1010.8 hPa | - | - | - | - |
| 1777811142 | 25.56° C | 38% | 1011 hPa | - | - | - | - |
| 1777810241 | 25.56° C | 38% | 1011.2 hPa | - | - | - | - |
| 1777809340 | 25.56° C | 38% | 1011.3 hPa | - | - | - | - |
| 1777808440 | 25.56° C | 39% | 1011.4 hPa | - | - | - | - |
| 1777807539 | 25° C | 40% | 1011.6 hPa | - | - | - | - |
| 1777806638 | 25° C | 38% | 1011.7 hPa | - | - | - | - |
| 1777805737 | 24.44° C | 40% | 1011.7 hPa | - | - | - | - |
| 1777804836 | 24.44° C | 41% | 1011.8 hPa | - | - | - | - |
| 1777803936 | 23.89° C | 42% | 1012 hPa | - | - | - | - |
| 1777803035 | 23.33° C | 42% | 1012.1 hPa | - | - | - | - |
| 1777802134 | 23.33° C | 43% | 1012.3 hPa | - | - | - | - |
| 1777801233 | 22.78° C | 43% | 1012.3 hPa | - | - | - | - |
| 1777800332 | 21.67° C | 45% | 1012.5 hPa | - | - | - | - |
| 1777799431 | 21.67° C | 45% | 1012.5 hPa | - | - | - | - |
| 1777798530 | 20.56° C | 46% | 1012.6 hPa | - | - | - | - |
| 1777797629 | 20° C | 47% | 1012.8 hPa | - | - | - | - |
| 1777796729 | 19.44° C | 46% | 1012.8 hPa | - | - | - | - |
* Rain since midnight (hover to see other rain measurements)
** Current wind speed in m/s (hover to see current wind gust speed)